Hourly Data Report for October 15, 2013

All times are specified in Local Standard Time (LST). Add 1 hour to adjust for Daylight Saving Time where and when it is observed.

KITCHENER/WATERLOO
ONTARIO

43°27'39.000" N
80°22'43.000" W
321.60 m
6144239
71368
YKF

Download Data

Hourly Data (October 2013)
Hourly Data Report for October 15, 2013
Temp Definition
°C
Dew Point Temp Definition
°C
Rel Hum Definition
%
Wind Dir Definition
10's deg

Wind Spd Definition
km/h
Visibility Definition
km
Stn Press Definition
kPa
Hmdx Definition


Wind Chill Definition


Weather Definition


TIME
00:00 Legend Double Dagger 5.7 4.9 95 6 5 16.1 98.70     LegendNANA
01:00 Legend Double Dagger 4.9 4.2 95 LegendMM 4 16.1 98.67     LegendNANA
02:00 Legend Double Dagger 4.6 4.3 98 28 8 16.1 98.64     LegendNANA
03:00 Legend Double Dagger 3.9 3.6 98 LegendMM 4 14.5 98.56     LegendNANA
04:00 Legend Double Dagger 3.4 3.3 99 34 4 9.7 98.53     LegendNANA
05:00 Legend Double Dagger 2.6 2.5 99   0 16.1 98.51     LegendNANA
06:00 Legend Double Dagger 2.6 2.5 99 35 5 16.1 98.51     LegendNANA
07:00 Legend Double Dagger 6.3 5.7 96 2 5 16.1 98.45     LegendNANA
08:00 Legend Double Dagger 9.3 8.3 93 8 5 16.1 98.43     LegendNANA
09:00 Legend Double Dagger 12.0 10.3 89 11 9 16.1 98.40     LegendNANA
10:00 Legend Double Dagger 13.8 10.3 79 9 13 16.1 98.32     LegendNANA
11:00 Legend Double Dagger 15.7 10.4 70 11 18 16.1 98.23     LegendNANA
12:00 Legend Double Dagger 16.5 10.7 68 13 18 16.1 98.13     LegendNANA
13:00 Legend Double Dagger 16.9 10.9 68 15 15 16.1 98.04     LegendNANA
14:00 Legend Double Dagger 17.4 11.8 70 13 17 16.1 97.93     LegendNANA
15:00 Legend Double Dagger 17.5 11.4 67 17 18 16.1 97.88     LegendNANA
16:00 Legend Double Dagger 16.7 12.3 75 12 15 16.1 97.83     LegendNANA
17:00 Legend Double Dagger 15.9 12.2 79 13 13 16.1 97.79     LegendNANA
18:00 Legend Double Dagger 14.9 11.9 82 11 15 16.1 97.68     LegendNANA
19:00 Legend Double Dagger 14.1 11.6 85 11 13 16.1 97.68     LegendNANA
20:00 Legend Double Dagger 14.0 12.1 88 12 8 14.5 97.62     LegendNANA
21:00 Legend Double Dagger 13.6 12.3 92 12 8 9.7 97.55     LegendNANA
22:00 Legend Double Dagger 13.4 12.3 93 13 8 8.1 97.50     LegendNANA
23:00 Legend Double Dagger 13.8 12.7 93 13 9 6.4 97.43     LegendNANA

Notes on Data Quality.

Legend

  • E = Estimated
  • M = Missing
  • NA = Not Available
  • ‡ = Partner data that is not subject to review by the National Climate Archives
Date modified: